Regional Weather Roundup
Issued by NWS Goodland, KS

Home | Current Version | Previous Version | Text Only | Print | Product List | Glossary On
Versions: 1 2 3 4 5 6 7 8 9 10 11 12 13 14 15 16 17 18 19 20 21 22 23 24 25 26 27 28 29 30 31 32 33 34 35 36 37 38 39 40 41 42 43 44 45 46 47 48 49 50
000
ASUS43 KGLD 020208
RWRGLD

GOODLAND FORECAST AREA HOURLY WEATHER ROUNDUP
NATIONAL WEATHER SERVICE GOODLAND KS
800 PM MDT MON SEP 01 2014

...OFFICIAL OBSERVATIONS...

CITY           SKY/WX    TMP DP  RH WIND       PRES   REMARKS
GOODLAND KS    CLEAR     65  53  65 SE6       29.96R
HILL CITY KS   CLEAR     68  59  73 E3        29.91S
IMPERIAL NEB   CLEAR     70  50  49 S9        29.93R
MCCOOK NEB     CLEAR     66  56  70 E9G23     29.91S
AKRON CO       PTCLDY    69  47  45 MISG      30.01R
BURLINGTON CO  CLEAR     69  47  45 SE9       29.98R
LIMON CO       PTCLDY    66  44  45 E3        30.05R
$$

...UNOFFICIAL OBSERVATIONS...

CITY           SKY/WX    TMP DP  RH WIND       PRES   REMARKS
COLBY KS       CLEAR     66  57  72 E6        29.96R
NORTON KS      CLEAR     68  52  56 E3        29.91S
SHARON SPRINGS   N/A     69  54  58 CALM        N/A
WAKEENEY KS      N/A     67  51  56 MISG        N/A
KIT CARSON CO    N/A     74  48  39 CALM        N/A
YUMA CO          N/A     69  53  57 CALM        N/A
$$



USA.gov is the U.S. government's official web portal to all federal, state and local government web resources and services.